Location: *
(29.1167°S, 130.0000°E)
Time: 22:48:42
(UTC+00:00)

Cosmos 1076 Rocket - Pass Details

Date: 21 July 2019
Orbit: 588 x 614 km, 82.5° (Epoch: 21 August)

Event Time Altitude Azimuth Distance (km) Brightness Sun altitude
Rises 10:04:03 0° 183° (S) 2,886 6.9 -17.7°
Reaches altitude 10° 10:06:17 10° 180° (S) 1,978 6.0 -18.2°
Maximum altitude 10:10:39 70° 97° (E) 657 3.4 -19.1°
Drops below altitude 10° 10:15:00 10° 12° (NNE) 1,964 6.1 -20.0°
Sets 10:17:13 0° 10° (N) 2,863 7.0 -20.5°
